[ ตารางข้อมูล ] [ Min-Max ] [ วันนี้4 ] [ วันนี้2 ] [ เทียบ3วัน A ] [ เทียบ4วัน B ]   

วันนี้2   [ ◀ ช่วงเก่ากว่า ] [ ช่วงที่ 219 ] [ ช่วงใหม่กว่า ▶ ] [ ล่าสุด ]    [ 3 ชั่วโมง ] [ 6 ชั่วโมง ] [ 12 ชั่วโมง ] [ 24 ชั่วโมง ]   วันนี้2

อุณภูมิตู้ Knockdown4529  ราย 6 ชั่วโมง  ที่วัดได้ ในช่วงวันเวลา 11/03/2026 (21:06) ถึง 12/03/2026 (03:06) 
ความชื้นในตู้ Knockdown4529  ราย 6 ชั่วโมง  ที่วัดได้ ในช่วงวันเวลา 11/03/2026 (21:06) ถึง 12/03/2026 (03:06) 

 
DS18B20SHTC3 
IDDate d/m/Y & Timedata1
สูง
data2
ต่ำ
data3
นอก
temp
pcb
hum
pcb
Time
 1655  12/03/2026 03:03:30  27.5  27.6  26.0  27.7  71.0  03:03 
 1654  12/03/2026 02:58:48  27.5  27.6  26.2  27.5  71.0  02:58 
 1653  12/03/2026 02:54:06  27.5  27.6  26.1  27.5  71.0  02:54 
 1652  12/03/2026 02:49:25  27.5  27.7  26.0  27.6  70.9  02:49 
 1651  12/03/2026 02:44:44  27.6  27.7  26.2  27.7  70.9  02:44 
 1650  12/03/2026 02:40:03  27.6  27.7  26.5  27.6  70.9  02:40 
 1649  12/03/2026 02:35:22  27.6  27.7  26.6  27.6  70.9  02:35 
 1648  12/03/2026 02:30:40  27.6  27.7  26.4  27.6  71.0  02:30 
 1647  12/03/2026 02:25:59  27.6  27.8  26.5  27.6  70.8  02:25 
 1646  12/03/2026 02:21:18  27.6  27.8  26.5  27.6  70.8  02:21 
 1645  12/03/2026 02:16:36  27.7  27.8  26.5  27.6  70.8  02:16 
 1644  12/03/2026 02:11:55  27.7  27.8  26.6  27.7  70.8  02:11 
 1643  12/03/2026 02:07:13  27.7  27.8  26.7  27.7  70.8  02:07 
 1642  12/03/2026 02:02:29  27.7  27.8  26.8  27.9  71.0  02:02 
 1641  12/03/2026 01:57:49  27.7  27.8  26.9  27.7  70.8  01:57 
 1640  12/03/2026 01:53:05  27.7  27.8  27.0  27.7  71.0  01:53 
 1639  12/03/2026 01:48:24  27.7  27.8  27.2  27.7  70.9  01:48 
 1638  12/03/2026 01:43:43  27.7  27.9  27.3  27.6  70.9  01:43 
 1637  12/03/2026 01:39:01  27.7  27.9  27.4  27.8  70.9  01:39 
 1636  12/03/2026 01:34:19  27.8  27.9  27.4  27.7  71.0  01:34 
 1635  12/03/2026 01:29:36  27.8  27.9  27.4  27.7  70.8  01:29 
 1634  12/03/2026 01:24:54  27.8  27.9  27.4  27.7  71.0  01:24 
 1633  12/03/2026 01:20:13  27.8  27.9  27.4  27.9  70.8  01:20 
 1632  12/03/2026 01:15:31  27.8  27.9  27.4  27.8  70.8  01:15 

Data every 5 minute.


ใช้เวลาประมวลผล 0.00300 วินาที